| time (UTC) | temp F | wind direction | speed MPH | gust MPH | rain 1hr in | rain 24hr in | rain mn in | humidity % | barometer mb |
| 20260901181543 | 76 | 84 | 1.0 | 6.0 | 0.00 | 0.54 | 0.04 | 88 | 1015.7 |
| 20260901180040 | 77 | 350 | 1.0 | 9.0 | 0.00 | 0.69 | 0.04 | 86 | 1015.6 |
| 20260901174541 | 78 | 13 | 2.0 | 8.0 | 0.00 | 0.69 | 0.04 | 85 | 1015.2 |
| 20260901173040 | 78 | 19 | 3.0 | 6.0 | 0.00 | 0.69 | 0.04 | 86 | 1015.1 |
| 20260901171534 | 80 | 22 | 3.0 | 8.0 | 0.00 | 0.69 | 0.04 | 83 | 1015.1 |
| 20260901170036 | 81 | 343 | 2.0 | 4.0 | 0.00 | 0.80 | 0.04 | 81 | 1014.8 |
| 20260901164513 | 81 | 5 | 0.0 | 3.0 | 0.00 | 0.80 | 0.04 | 80 | 1014.8 |
| 20260901163011 | 81 | 250 | 0.0 | 4.0 | 0.00 | 0.80 | 0.04 | 83 | 1014.7 |
| 20260901161526 | 80 | 10 | 0.0 | 3.0 | 0.00 | 0.80 | 0.04 | 83 | 1014.8 |
| 20260901160027 | 79 | 328 | 1.0 | 5.0 | 0.00 | 0.85 | 0.04 | 84 | 1014.7 |
| 20260901154608 | 79 | 254 | 1.0 | 4.0 | 0.00 | 0.85 | 0.04 | 84 | 1014.7 |
| 20260901153106 | 78 | 329 | 1.0 | 3.0 | 0.00 | 0.85 | 0.04 | 85 | 1014.6 |
| 20260901153000 | 78 | 263 | 0.0 | 3.0 | 0.00 | 0.85 | 0.04 | 85 | 1014.7 |
| 20260901151559 | 78 | 49 | 1.0 | 3.0 | 0.00 | 0.85 | 0.04 | 89 | 1014.7 |
| 20260901151501 | 77 | 49 | 0.0 | 3.0 | 0.00 | 0.85 | 0.04 | 90 | 1014.7 |
| 20260901150104 | 77 | 28 | 0.0 | 2.0 | 0.00 | 0.96 | 0.04 | 93 | 1014.7 |
| 20260901144539 | 75 | 252 | 0.0 | 3.0 | 0.00 | 0.96 | 0.04 | 95 | 1014.8 |
| 20260901143039 | 74 | 265 | 0.0 | 2.0 | 0.00 | 0.96 | 0.04 | 97 | 1014.8 |
| 20260901141554 | 74 | 355 | 0.0 | 3.0 | 0.00 | 0.96 | 0.04 | 97 | 1014.5 |
| 20260901140051 | 73 | 24 | 1.0 | 3.0 | 0.00 | 1.18 | 0.04 | 98 | 1014.6 |
| 20260901134544 | 73 | 276 | 0.0 | 2.0 | 0.00 | 1.18 | 0.04 | 99 | 1014.6 |
| 20260901133040 | 73 | 259 | 0.0 | 2.0 | 0.00 | 1.18 | 0.04 | 99 | 1014.6 |
| 20260901131543 | 72 | 281 | 0.0 | 1.0 | 0.00 | 1.18 | 0.04 | 99 | 1014.8 |
| 20260901130015 | 72 | 295 | 0.0 | 2.0 | 0.00 | 1.31 | 0.04 | 99 | 1014.7 |
| 20260901124521 | 70 | 5 | 0.0 | 1.0 | 0.00 | 1.31 | 0.04 | 99 | 1014.8 |
| 20260901123055 | 70 | 5 | 0.0 | 1.0 | 0.00 | 1.31 | 0.04 | 99 | 1015.0 |
| 20260901121555 | 69 | 5 | 0.0 | 0.0 | 0.00 | 1.31 | 0.04 | 98 | 1014.9 |
| 20260901120108 | 69 | 5 | 0.0 | 1.0 | 0.00 | 1.34 | 0.04 | 98 | 1014.8 |
| 20260901114553 | 69 | 5 | 0.0 | 1.0 | 0.00 | 1.34 | 0.04 | 98 | 1014.5 |
| 20260901113059 | 69 | 5 | 0.0 | 1.0 | 0.00 | 1.34 | 0.04 | 98 | 1014.4 |
| 20260901111601 | 68 | 5 | 0.0 | 1.0 | 0.00 | 1.34 | 0.04 | 98 | 1014.5 |
| 20260901110058 | 68 | 5 | 0.0 | 3.0 | 0.00 | 1.34 | 0.04 | 98 | 1014.5 |
| 20260901104554 | 68 | 198 | 0.0 | 0.0 | 0.00 | 1.34 | 0.04 | 98 | 1014.2 |
| 20260901103106 | 68 | 198 | 0.0 | 0.0 | 0.00 | 1.34 | 0.04 | 98 | 1014.1 |
| 20260901103002 | 68 | 198 | 0.0 | 0.0 | 0.00 | 1.34 | 0.04 | 98 | 1014.0 |
| 20260901101504 | 68 | 198 | 0.0 | 1.0 | 0.00 | 1.34 | 0.04 | 98 | 1014.1 |
| 20260901100008 | 68 | 198 | 0.0 | 0.0 | 0.00 | 1.34 | 0.04 | 98 | 1013.9 |
| 20260901094517 | 68 | 198 | 0.0 | 1.0 | 0.00 | 1.34 | 0.04 | 98 | 1013.8 |
| 20260901093002 | 68 | 198 | 0.0 | 0.0 | 0.00 | 1.34 | 0.04 | 98 | 1013.7 |
| 20260901091609 | 68 | 198 | 0.0 | 3.0 | 0.00 | 1.34 | 0.04 | 98 | 1013.9 |
| 20260901084605 | 68 | 205 | 0.0 | 2.0 | 0.00 | 1.34 | 0.04 | 98 | 1014.1 |
| 20260901083024 | 68 | 158 | 0.0 | 2.0 | 0.00 | 1.34 | 0.04 | 98 | 1013.8 |
| 20260901081514 | 68 | 158 | 0.0 | 1.0 | 0.01 | 1.34 | 0.04 | 98 | 1013.7 |
| 20260901080015 | 68 | 163 | 0.0 | 2.0 | 0.01 | 1.34 | 0.04 | 98 | 1013.9 |
| 20260901074512 | 68 | 160 | 0.0 | 2.0 | 0.01 | 1.34 | 0.04 | 98 | 1014.2 |
| 20260901073009 | 68 | 210 | 0.0 | 2.0 | 0.01 | 1.34 | 0.04 | 98 | 1014.5 |
| 20260901071508 | 68 | 157 | 0.0 | 1.0 | 0.00 | 1.33 | 0.03 | 98 | 1014.7 |
| 20260901070056 | 68 | 157 | 0.0 | 3.0 | 0.00 | 1.33 | 0.03 | 98 | 1014.8 |
| 20260901064551 | 68 | 220 | 0.0 | 3.0 | 0.00 | 1.33 | 0.03 | 98 | 1015.2 |
| 20260901063050 | 68 | 204 | 0.0 | 1.0 | 0.00 | 1.33 | 0.03 | 98 | 1015.4 |
| 20260901061555 | 68 | 204 | 0.0 | 0.0 | 0.00 | 1.33 | 0.03 | 98 | 1015.6 |
| 20260901060055 | 69 | 204 | 0.0 | 0.0 | 0.00 | 1.33 | 0.03 | 98 | 1015.8 |
| 20260901054552 | 69 | 204 | 0.0 | 0.0 | 0.01 | 1.33 | 0.03 | 98 | 1016.1 |
| 20260901053059 | 69 | 204 | 0.0 | 1.0 | 0.03 | 1.33 | 0.03 | 98 | 1015.9 |
| 20260901051552 | 69 | 204 | 0.0 | 1.0 | 0.03 | 1.33 | 0.03 | 98 | 1016.1 |
| 20260901050051 | 69 | 213 | 0.0 | 1.0 | 0.03 | 1.33 | 0.03 | 98 | 1016.4 |
| 20260901044543 | 69 | 213 | 0.0 | 2.0 | 0.02 | 1.32 | 0.02 | 98 | 1016.4 |
| 20260901043058 | 69 | 129 | 0.0 | 1.0 | 0.00 | 1.30 | 0.00 | 98 | 1016.5 |
| 20260901041549 | 68 | 116 | 0.0 | 1.0 | 0.00 | 1.30 | 0.00 | 98 | 1016.4 |
| 20260901040100 | 68 | 116 | 0.0 | 0.0 | 0.00 | 1.30 | 0.00 | 98 | 1016.5 |
| 20260901034547 | 68 | 116 | 0.0 | 0.0 | 0.00 | 1.30 | 1.30 | 98 | 1016.5 |
| 20260901033038 | 69 | 116 | 0.0 | 0.0 | 0.00 | 1.30 | 1.30 | 98 | 1016.9 |
| 20260901031554 | 69 | 116 | 0.0 | 0.0 | 0.00 | 1.30 | 1.30 | 98 | 1016.9 |
| 20260901030054 | 69 | 116 | 0.0 | 1.0 | 0.00 | 1.30 | 1.30 | 98 | 1017.1 |
| 20260901024518 | 69 | 116 | 0.0 | 0.0 | 0.00 | 1.30 | 1.30 | 98 | 1017.2 |
| 20260901023039 | 68 | 116 | 0.0 | 0.0 | 0.00 | 1.30 | 1.30 | 98 | 1017.3 |
| 20260901021550 | 69 | 116 | 0.0 | 0.0 | 0.00 | 1.30 | 1.30 | 98 | 1017.5 |
| 20260901020052 | 69 | 116 | 0.0 | 0.0 | 0.00 | 1.30 | 1.30 | 98 | 1017.5 |
| 20260901014551 | 69 | 116 | 0.0 | 0.0 | 0.00 | 1.30 | 1.30 | 98 | 1017.6 |
| 20260901013008 | 68 | 116 | 0.0 | 0.0 | 0.00 | 1.30 | 1.30 | 98 | 1017.5 |
| 20260901011558 | 68 | 116 | 0.0 | 0.0 | 0.00 | 1.30 | 1.30 | 98 | 1017.7 |
| 20260901010034 | 68 | 116 | 0.0 | 0.0 | 0.00 | 1.30 | 1.30 | 98 | 1017.5 |
| 20260901004519 | 68 | 116 | 0.0 | 0.0 | 0.00 | 1.30 | 1.30 | 98 | 1017.2 |
| 20260901003010 | 68 | 116 | 0.0 | 0.0 | 0.00 | 1.30 | 1.30 | 98 | 1017.1 |
| 20260901001513 | 69 | 116 | 0.0 | 1.0 | 0.00 | 1.30 | 1.30 | 98 | 1017.2 |
| 20260901000052 | 69 | 116 | 0.0 | 0.0 | 0.00 | 1.30 | 1.30 | 98 | 1017.1 |
| 20260831234633 | 68 | 116 | 0.0 | 1.0 | 0.00 | 1.30 | 1.30 | 98 | 1017.3 |
| 20260831234502 | 69 | 116 | 0.0 | 1.0 | 0.00 | 1.30 | 1.30 | 98 | 1017.3 |
| 20260831233100 | 69 | 116 | 0.0 | 1.0 | 0.00 | 1.30 | 1.30 | 98 | 1017.4 |
| 20260831233002 | 69 | 116 | 0.0 | 1.0 | 0.00 | 1.30 | 1.30 | 98 | 1017.4 |
| 20260831231512 | 69 | 112 | 0.0 | 1.0 | 0.00 | 1.30 | 1.30 | 97 | 1017.4 |
| 20260831230012 | 69 | 112 | 0.0 | 2.0 | 0.01 | 1.30 | 1.30 | 97 | 1017.4 |
| 20260831224505 | 69 | 31 | 1.0 | 3.0 | 0.01 | 1.30 | 1.30 | 97 | 1017.4 |
| 20260831223101 | 69 | 22 | 0.0 | 3.0 | 0.01 | 1.30 | 1.30 | 98 | 1017.6 |
| 20260831221558 | 69 | 159 | 0.0 | 2.0 | 0.01 | 1.30 | 1.30 | 98 | 1017.5 |
| 20260831220100 | 69 | 107 | 0.0 | 2.0 | 0.00 | 1.29 | 1.30 | 98 | 1017.5 |
| 20260831220002 | 69 | 107 | 0.0 | 1.0 | 0.00 | 1.29 | 1.29 | 98 | 1017.5 |
| 20260831214503 | 69 | 107 | 0.0 | 2.0 | 0.00 | 1.29 | 1.29 | 98 | 1017.6 |
| 20260831213003 | 69 | 107 | 0.0 | 0.0 | 0.00 | 1.29 | 1.29 | 98 | 1017.6 |
| 20260831211522 | 69 | 107 | 0.0 | 0.0 | 0.00 | 1.29 | 1.29 | 98 | 1017.7 |
| 20260831210031 | 69 | 104 | 0.0 | 1.0 | 0.01 | 1.29 | 1.29 | 97 | 1017.6 |
| 20260831204524 | 68 | 195 | 0.0 | 0.0 | 0.02 | 1.29 | 1.29 | 98 | 1017.6 |
| 20260831203013 | 68 | 200 | 0.0 | 2.0 | 0.03 | 1.29 | 1.29 | 98 | 1017.5 |
| 20260831201515 | 68 | 133 | 1.0 | 3.0 | 0.06 | 1.29 | 1.29 | 98 | 1017.4 |
| 20260831200025 | 68 | 172 | 1.0 | 3.0 | 0.07 | 1.28 | 1.28 | 97 | 1017.8 |
| 20260831194529 | 68 | 152 | 0.0 | 1.0 | 0.15 | 1.27 | 1.27 | 97 | 1018.1 |
| 20260831193042 | 68 | 167 | 1.0 | 3.0 | 0.32 | 1.26 | 1.26 | 97 | 1018.2 |
| 20260831191533 | 68 | 153 | 0.0 | 2.0 | 0.34 | 1.23 | 1.23 | 97 | 1018.3 |
| 20260831190038 | 68 | 135 | 0.0 | 2.0 | 0.41 | 1.21 | 1.21 | 97 | 1018.6 |
| 20260831184533 | 68 | 184 | 0.0 | 2.0 | 0.38 | 1.12 | 1.12 | 97 | 1018.5 |
| 20260831183104 | 68 | 162 | 0.0 | 2.0 | 0.24 | 0.94 | 0.95 | 97 | 1018.7 |
| 20260831183003 | 68 | 162 | 0.0 | 2.0 | 0.25 | 0.94 | 0.94 | 97 | 1018.7 |